THORAD AGENA D DEB, 42499

Orbit data source: Space-Track

THORAD AGENA D DEB, 42499 is space debris in SSO originally from a launch on Wed, 08 Apr 1970 UTC launched from the Air Force Western Test Range (AFWTR). Debris objects in space refer to the collection of defunct objects orbiting the Earth. Examples of debris include non-operational satellites, rocket bodies, and fragments generated from explosions, collisions, or faulty payload assembly.

Loading next visibility...
Identifier
42499, 1970-025RD
Orbit
SSO
Country
Flag of USUS
Related business
Manufacturer
Unknown
Mission
Spacecraft
Bus & Motor
Unknown
Mass
Unknown
Launch date (UTC)
1970-04-08 (56 years ago)
Launch vehicle
Unknown
Launch site
Air Force Western Test Range (AFWTR)
Object type
Payload
Rocket body
Debris
Shape & HBR
Unknown shape, 0.1 m
Radar Cross Section
Small (<0.1 m²)

Expand to show TLE details & history
Last TLE update: 1 week ago

TLE from 1 week ago
0 THORAD AGENA D DEB
1 42499U 70025RD  26166.46688324  .00000842  00000-0  86169-3 0  9991
2 42499 100.0936  77.8545 0004934 197.8686 162.2291 13.79806875631119
Epoch: 2026-06-15T11:12Z
TLE epoch observation values (Epoch: 2026-06-15T11:12:18.711Z)
Latitude
-0.00002°
Longitude
6.02368°
Altitude
970.835 km
Speed
7.365 km/s
True Right ascension
05h 11m 25s
True Declination
0° 00' 00"
Sunlit
Object was in daylight at epoch
Visualization orbit readout
Latitude
Unknown
Longitude
Unknown
Altitude
Unknown
Speed
Unknown
Apparent Right ascension
Unknown
Apparent Declination
Unknown
Sunlit
N/A
Visualization observer readout
Local Sidereal Time
21:35:27
Azimuth
Unknown
Elevation
Unknown
Doppler factor
Unknown
Orbital elements
Apogee altitude
965.476 km
Perigee altitude
958.233 km
Semi-major axis
7,339.991 km
Eccentricity
0.00049
Inclination
100.0936°
RAAN
77.8545°
Arg. of periapsis
197.8686°
True anomaly
162.24635°
Mean anomaly
162.2291°
Eccentric anomaly
162.23772°
Mean motion
3.45144 °/min
Orbital period
104.3 mins
BSTAR
0.00086169
Loading maneuver chart data...
Computing Atmospheric mass density...

Documentation

Showing up to 5 results
|